Theta_e
293 289 287 286 290 292 290 291 291 286 286 285 283 282 283 284 284 285 286 288 288 288 287 289 288 288 290 291 293 290 288 289 290 290 291 291 291 291 291 291 291 291 291 291 291 291 292 293 295 298 302 301 301 301 301 301 300 300 299 299 298 298 298 298 298 299 297 295 295 294 293 291 292 291 291 291 291 291 291 292 292 293 294 295 295 295
292 288 287 290 293 291 290 289 287 287 288 289 285 285 285 283 286 286 290 290 288 289 284 284 285 287 289 291 292 290 287 290 290 291 291 292 292 292 291 291 291 291 289 289 290 290 289 292 295 298 300 301 299 299 300 300 300 300 300 299 298 298 298 298 298 298 297 296 294 293 291 291 291 291 290 289 290 290 290 290 291 290 291 292 292 292
288 288 291 293 290 289 288 289 288 289 288 284 287 285 285 284 284 288 288 287 288 288 287 286 288 291 291 291 292 291 291 292 292 293 294 294 293 292 292 291 291 289 290 290 291 290 291 293 297 299 300 300 299 299 299 300 299 299 299 299 298 299 298 298 296 295 294 294 293 291 290 289 288 289 289 289 289 289 288 288 289 289 290 290 289 289
287 287 293 291 289 290 288 286 288 287 286 286 283 285 286 283 287 285 286 288 289 289 285 283 287 289 290 291 292 293 293 293 293 293 293 293 293 293 293 292 292 290 290 290 291 291 291 292 296 300 300 300 299 298 298 298 298 298 298 299 298 297 296 295 294 294 292 291 291 290 290 290 289 287 289 288 288 288 287 287 288 288 288 288 288 287
289 291 291 291 291 291 289 285 287 286 286 284 287 285 284 285 286 288 287 286 286 289 285 287 289 291 292 293 293 295 292 291 294 292 291 292 292 293 291 292 293 292 291 290 290 291 291 292 296 299 300 300 298 298 298 298 298 298 298 298 297 295 295 294 293 292 292 291 289 289 289 289 288 289 288 287 286 286 287 286 286 286 286 286 286 285
289 290 288 290 288 289 288 286 286 288 287 284 284 289 289 287 288 285 285 288 285 283 284 286 283 280 279 286 290 293 287 290 290 291 294 295 293 290 291 292 291 292 292 292 291 291 292 293 296 300 300 299 298 297 298 299 297 298 298 297 296 295 293 292 292 291 292 291 290 289 289 288 287 286 287 285 284 284 285 285 285 285 284 284 283 283
289 290 290 289 289 287 288 287 286 290 288 285 286 287 290 289 287 287 286 287 280 280 285 284 283 282 282 287 288 288 286 289 291 290 293 294 293 291 291 291 291 291 290 290 291 291 291 292 296 299 299 299 298 297 297 297 296 297 297 295 294 293 292 292 291 291 291 290 290 291 291 290 288 286 284 283 284 284 284 284 283 282 282 282 282 282
288 289 287 287 287 287 285 285 288 290 288 284 285 284 287 287 286 286 285 287 284 281 284 283 281 282 286 288 292 293 291 292 293 296 297 295 292 290 290 290 290 291 291 291 291 291 292 293 296 299 300 299 298 297 296 295 294 296 295 295 294 293 292 291 291 291 291 290 290 289 288 287 286 285 284 284 284 284 283 282 281 281 281 281 281 281
290 287 287 287 286 285 287 288 287 292 288 285 287 285 285 287 285 284 286 282 282 282 282 284 286 284 283 284 286 287 287 289 292 294 296 296 290 290 289 289 290 290 291 291 290 290 291 292 296 299 300 300 298 296 295 293 293 295 295 295 293 293 291 291 291 290 290 290 290 289 287 285 284 284 284 284 285 283 282 281 280 280 280 280 280 280
288 289 291 292 290 288 286 285 289 293 289 287 285 286 284 283 282 281 281 285 281 279 281 283 284 281 285 286 286 284 287 288 291 294 296 294 289 288 289 289 289 289 289 290 291 291 291 292 295 299 300 299 298 296 295 293 293 293 293 293 292 291 291 291 290 289 288 288 289 288 286 285 284 284 282 282 281 281 280 280 279 279 279 279 279 279
290 291 290 290 290 290 286 285 286 290 288 288 287 289 285 282 280 279 280 279 280 279 283 284 285 286 282 285 286 287 288 290 293 292 292 288 286 286 287 288 288 288 289 289 290 290 291 291 293 297 298 298 297 295 294 293 293 292 292 291 291 290 290 290 289 288 287 287 288 287 287 285 283 282 282 280 279 279 279 279 279 278 279 279 279 279
290 288 290 289 289 288 289 288 286 285 287 290 286 282 287 286 278 277 274 276 276 279 282 282 285 286 282 282 284 288 286 285 289 290 291 287 287 287 287 287 288 288 288 288 289 289 289 289 289 294 297 296 296 294 293 293 293 292 291 290 289 289 289 288 288 287 286 287 287 286 286 285 283 282 281 281 280 280 279 279 279 278 278 278 279 278
286 288 286 289 290 292 287 289 287 286 289 287 287 288 283 274 271 275 271 277 276 280 280 277 282 282 284 290 284 287 290 290 288 290 291 290 289 287 286 287 287 287 287 288 288 289 288 289 290 292 296 295 295 294 293 292 293 293 291 290 289 289 288 288 287 286 286 286 285 285 284 283 283 282 282 281 280 280 280 279 278 278 278 278 279 278
284 283 286 289 290 290 293 290 284 285 288 286 288 285 281 273 274 273 272 271 270 277 278 280 282 283 284 287 292 295 296 295 292 291 290 290 291 290 287 287 287 287 287 288 288 288 288 289 290 292 295 295 294 294 293 293 293 292 291 290 290 289 288 287 286 286 285 285 284 283 283 283 283 282 281 281 281 280 280 280 279 279 279 279 279 278
278 280 286 289 288 290 294 295 293 288 287 290 287 290 286 281 276 273 273 276 279 276 274 276 278 278 278 284 286 292 290 285 283 283 284 286 287 285 285 285 285 286 286 287 288 288 288 289 290 291 294 294 294 294 293 292 292 292 290 290 290 288 286 286 285 284 284 284 283 283 282 282 282 282 281 281 281 280 279 279 279 279 278 278 278 278
284 284 282 291 288 292 293 290 288 287 286 285 285 285 281 285 281 282 273 271 270 271 271 273 280 280 284 285 288 287 286 288 286 284 283 285 285 284 285 286 286 287 287 287 288 288 288 288 289 290 292 294 294 294 293 292 292 291 290 290 289 287 285 284 284 284 283 283 282 281 281 281 281 282 281 280 281 279 279 279 279 278 278 278 278 278
282 281 284 287 288 290 292 289 291 290 287 285 287 285 286 284 286 276 274 275 272 271 279 275 280 282 284 290 292 294 292 290 288 285 284 286 284 283 286 286 286 287 287 287 288 288 288 287 288 289 291 293 294 293 293 292 292 291 290 289 288 287 285 284 284 284 283 282 281 281 281 280 280 280 279 280 279 278 278 278 278 278 277 278 278 278
284 282 286 286 288 287 286 286 286 287 288 286 282 286 286 286 286 283 279 274 269 274 278 278 281 283 279 284 282 286 287 291 290 289 288 286 282 284 286 287 287 287 287 288 288 288 288 288 288 289 290 291 293 293 293 292 292 291 291 290 288 286 284 283 283 282 282 281 281 280 280 280 280 280 279 279 279 278 278 278 278 278 278 278 278 279
290 284 284 283 285 287 286 290 289 287 288 287 284 288 290 283 280 281 277 279 272 275 278 275 276 280 283 287 286 285 286 290 291 291 288 287 285 285 285 286 286 285 285 286 287 287 287 287 287 288 288 289 291 293 292 292 291 291 290 290 289 287 285 283 283 282 282 282 282 282 281 280 280 279 279 278 278 278 278 278 278 278 278 278 278 278
289 285 283 285 285 286 287 288 285 285 288 287 288 288 286 285 277 279 284 275 277 273 269 280 274 284 285 285 286 291 291 292 292 286 287 288 289 288 286 286 286 286 286 286 287 287 287 287 287 287 288 287 288 289 290 290 289 290 290 289 289 287 285 283 282 282 282 281 282 281 280 280 280 280 279 278 278 278 278 278 278 278 278 278 278 277
289 287 279 282 285 286 284 286 286 288 286 284 286 283 286 282 284 281 280 280 279 269 269 274 280 284 282 285 287 291 291 292 291 291 291 290 289 287 286 287 287 287 286 287 287 287 286 286 286 286 286 287 286 287 287 287 287 287 288 289 288 287 284 283 282 282 282 282 282 281 280 280 279 279 279 278 278 278 278 278 278 278 278 278 277 277
286 284 284 282 282 283 284 284 288 291 293 290 290 287 289 284 282 280 281 281 275 276 278 271 280 287 285 284 291 289 290 290 290 290 291 289 287 287 287 286 287 286 287 287 287 286 286 285 285 285 285 285 285 285 285 285 285 285 286 287 287 286 285 283 282 282 282 282 282 281 281 280 279 279 278 278 278 278 278 278 278 278 277 277 277 277
293 286 285 280 283 286 285 287 283 284 285 286 287 287 291 289 288 284 281 282 276 280 275 274 269 285 288 286 286 289 287 284 284 285 289 288 286 286 287 287 286 287 286 286 286 286 285 284 284 284 285 285 285 285 285 284 285 285 285 284 284 284 284 284 283 283 282 282 281 281 281 280 279 279 278 278 278 278 278 278 278 278 277 277 276 276
294 288 286 284 281 281 283 284 284 283 287 287 286 282 288 288 289 289 288 284 284 276 279 275 275 286 287 282 280 279 279 280 281 281 285 285 285 285 286 285 286 286 285 285 285 284 284 284 283 283 284 284 284 285 285 285 285 285 284 284 284 283 284 283 283 283 282 282 282 281 280 280 279 278 278 278 278 278 278 278 278 278 277 277 276 276
289 288 289 281 277 279 281 285 285 286 287 283 283 287 290 291 290 284 281 280 279 282 284 282 279 285 286 281 281 283 280 283 285 284 283 286 285 285 285 285 285 285 284 284 284 284 283 283 282 283 284 284 284 285 285 285 284 284 284 284 284 283 283 283 282 282 282 282 281 281 280 280 279 278 278 278 278 278 278 278 277 277 277 277 276 276
292 289 288 284 281 280 279 279 281 283 285 286 281 285 287 289 289 285 285 281 281 286 284 284 284 287 285 284 287 284 281 286 285 284 283 284 286 285 285 286 285 285 286 284 284 283 283 283 283 283 283 284 284 285 285 285 284 284 284 283 283 283 282 282 282 282 282 281 281 281 280 280 279 279 278 278 278 278 278 278 277 277 277 277 276 276
288 289 292 290 288 286 288 287 286 288 285 284 286 287 288 289 291 290 289 285 283 285 283 287 288 288 286 287 286 288 283 286 287 285 286 287 285 284 284 285 285 285 285 284 284 284 283 283 283 283 283 284 284 284 285 284 284 284 283 283 283 283 283 282 282 282 281 281 281 280 280 280 279 279 279 278 278 278 278 278 277 277 277 277 276 276
285 288 290 292 291 292 294 285 286 290 287 288 287 287 289 288 288 288 287 286 289 284 282 288 289 288 289 288 287 287 286 284 285 286 286 286 286 285 285 284 287 284 284 284 284 283 284 284 284 283 283 283 283 283 284 284 284 284 283 283 283 282 283 282 282 281 281 281 281 280 280 281 280 280 279 278 278 278 278 278 277 277 277 276 276 276
288 289 291 291 290 292 290 284 287 289 289 289 289 288 287 288 287 286 288 290 289 286 285 289 289 287 290 292 293 289 289 291 291 289 288 288 286 283 284 284 284 284 284 284 285 285 284 284 284 284 283 283 282 282 283 283 283 283 283 283 282 282 282 282 281 281 281 281 281 281 280 280 280 279 279 278 277 277 277 277 277 277 276 276 276 277
290 289 291 291 289 291 291 288 286 287 287 287 288 289 289 288 288 288 289 291 290 289 291 289 286 288 292 293 294 295 293 293 291 287 287 287 287 284 284 285 286 285 285 285 285 285 285 285 285 284 283 282 282 282 282 283 283 283 283 283 282 282 282 282 281 281 281 281 281 281 280 280 279 278 278 278 277 277 277 277 276 276 276 276 277 276
292 289 293 288 287 288 290 289 286 287 287 286 287 288 289 289 289 289 289 290 290 290 291 290 289 289 294 292 292 295 293 290 289 288 291 290 287 286 286 286 286 286 286 286 286 285 285 285 284 282 282 282 282 282 283 283 283 283 283 283 282 282 282 282 281 281 281 281 281 281 280 279 279 279 278 279 278 277 277 277 276 276 276 276 276 275
290 286 287 287 286 286 289 288 287 285 286 287 287 287 287 287 286 288 287 290 289 288 289 288 287 288 288 294 290 288 287 289 291 291 290 290 289 286 286 287 287 287 287 287 287 286 286 285 283 283 282 282 282 282 282 283 283 283 283 283 282 282 281 281 281 281 281 281 281 281 281 280 280 279 279 279 278 278 277 276 276 276 276 275 275 274
288 289 287 287 285 286 289 289 287 285 285 283 285 288 289 289 290 290 291 291 291 292 288 286 288 294 289 287 291 288 289 290 290 290 290 290 289 288 288 289 289 288 288 288 288 287 286 285 284 284 284 283 283 283 283 284 284 284 284 284 283 282 281 281 281 282 282 282 282 281 281 280 280 279 279 278 278 277 276 276 276 276 275 275 274 274
289 289 288 290 285 286 289 287 286 283 277 280 292 295 294 290 289 287 288 289 291 292 291 294 294 293 287 287 290 290 288 291 293 293 294 296 292 288 287 288 289 290 290 289 288 287 286 286 285 285 285 285 285 285 285 285 285 284 284 283 282 281 281 281 282 282 283 282 282 281 280 280 279 279 278 277 277 276 276 276 276 276 275 274 274 274
289 289 288 289 285 285 286 285 282 277 280 291 290 292 296 296 293 290 291 291 292 292 293 293 293 294 291 290 292 293 293 294 292 293 293 289 289 290 290 289 289 289 289 288 287 286 286 286 286 285 285 285 285 284 284 283 283 283 282 282 282 281 281 281 282 283 283 282 281 280 280 279 279 278 277 276 276 276 276 276 275 275 275 274 274 274
289 288 287 285 286 284 282 283 277 279 287 287 288 287 291 295 292 290 288 291 292 292 293 292 294 295 294 292 290 291 292 290 289 289 288 286 288 292 291 291 290 289 288 288 288 288 287 287 287 286 286 285 284 283 283 283 282 282 282 282 282 282 282 282 282 282 282 282 281 280 279 278 278 278 277 277 276 275 276 275 275 275 274 273 273 272
292 290 288 285 288 282 283 283 284 287 286 288 288 287 289 289 288 288 285 288 292 293 293 293 294 294 294 294 293 288 287 287 287 292 285 288 289 290 292 292 291 290 290 289 289 289 288 287 287 286 285 284 284 283 282 282 283 283 282 282 282 282 282 282 282 282 282 281 280 279 279 279 278 277 277 276 275 275 275 275 274 274 273 272 272 272
293 288 288 285 283 287 284 281 282 282 280 286 291 285 290 292 293 293 291 288 294 294 294 293 292 293 293 293 293 287 286 288 288 292 291 290 291 290 287 287 286 286 287 286 285 285 286 285 285 284 285 284 283 283 283 283 283 283 282 282 282 282 282 281 282 282 282 281 281 280 279 279 279 278 277 276 276 275 276 275 274 273 272 273 271 271
291 292 289 286 285 284 283 281 281 279 283 288 286 287 291 292 293 291 289 286 293 292 293 293 292 293 293 293 291 287 289 286 289 292 296 291 289 286 288 285 285 285 285 286 287 286 285 286 285 285 284 284 283 283 283 283 283 283 282 282 282 282 281 281 282 282 282 281 280 280 279 279 279 278 277 276 276 276 275 275 274 273 271 271 270 270
287 287 287 283 283 285 284 282 280 284 284 284 285 285 288 288 292 290 281 284 290 289 292 292 293 294 294 293 289 288 289 287 289 294 288 288 289 287 288 286 285 285 284 284 284 285 286 285 285 284 285 285 284 283 283 283 283 283 282 282 282 281 281 282 282 282 280 280 280 279 279 279 278 278 277 276 276 275 275 274 271 271 271 270 270 269
283 284 285 281 283 284 285 283 285 284 287 285 283 282 285 293 292 284 280 289 289 290 290 293 293 295 295 291 288 289 290 294 292 285 283 285 285 283 282 283 284 285 285 284 284 285 285 285 286 286 285 285 283 282 282 283 283 282 281 281 281 281 282 281 281 281 281 280 279 279 278 278 278 277 277 277 276 275 272 272 272 270 270 270 269 269
284 284 283 285 282 282 283 282 283 285 287 286 281 285 289 291 282 283 290 280 285 284 288 290 292 293 292 291 290 292 294 285 280 282 283 285 287 284 282 282 282 282 281 282 283 284 284 285 284 283 282 282 282 282 282 283 282 281 280 280 281 282 281 280 280 280 280 279 279 278 277 277 277 277 276 274 274 272 272 271 271 271 270 270 269 269
284 282 280 282 284 284 283 281 281 278 287 287 287 286 288 287 288 288 283 281 281 284 287 287 289 291 291 290 290 289 282 282 282 283 283 282 283 283 282 282 283 283 283 283 283 283 285 284 283 283 281 280 281 281 282 282 281 280 280 280 281 280 280 280 280 280 279 279 278 277 276 276 276 275 274 273 273 273 272 270 270 270 270 270 269 269
287 283 282 284 287 281 281 279 281 287 285 289 290 287 289 291 287 284 286 287 283 283 287 288 288 287 287 289 286 282 282 282 280 281 281 281 281 282 282 282 282 283 283 284 284 284 284 283 281 280 278 279 280 281 282 282 280 279 279 280 279 278 278 277 277 277 277 277 276 276 275 275 274 274 274 274 273 273 272 270 270 270 270 270 269 269
288 286 286 284 287 285 284 286 287 285 287 290 291 287 290 292 284 284 284 286 285 285 284 286 289 287 287 287 285 284 281 282 283 282 283 282 283 283 283 283 283 284 284 284 283 283 283 283 280 278 277 277 278 280 281 281 280 278 279 278 276 277 277 276 275 276 276 275 275 274 274 274 274 274 273 273 273 273 272 270 270 270 268 269 269 269
284 284 284 287 286 288 286 286 285 283 284 288 286 284 284 287 284 284 284 285 285 286 285 289 288 286 286 286 285 281 285 282 281 282 281 282 283 282 282 282 282 282 282 282 281 282 282 281 279 278 277 276 276 278 279 279 280 279 279 276 276 275 276 275 275 275 275 274 274 274 273 273 272 273 272 272 273 273 273 272 270 271 269 268 269 269
284 283 285 284 285 286 284 286 284 285 284 285 288 284 283 283 284 284 285 285 285 284 284 285 286 286 285 285 286 283 281 281 282 281 281 282 282 282 282 282 282 281 282 282 281 279 280 280 280 278 277 277 275 275 276 276 276 278 276 275 276 275 275 275 275 275 274 274 274 273 273 274 273 272 271 270 270 271 271 272 271 270 269 269 269 269
284 284 285 283 284 285 286 284 282 283 282 283 284 284 284 284 284 283 283 282 282 282 284 284 283 283 283 284 284 282 281 281 281 280 281 282 283 282 282 282 281 280 280 281 279 280 281 282 281 279 279 279 276 275 275 275 276 275 274 274 275 274 274 275 275 275 274 273 273 273 272 273 270 271 270 270 270 270 270 270 271 270 270 270 269 269
285 287 281 285 285 286 285 283 282 284 284 284 284 283 284 284 284 283 282 281 281 282 282 281 280 283 284 285 282 282 281 280 281 282 282 282 282 281 281 281 281 281 278 278 278 279 282 281 280 280 280 280 277 275 275 275 275 273 273 274 273 274 274 274 273 272 271 271 271 271 270 271 271 271 271 270 270 271 272 272 271 271 271 271 271 271
285 283 284 284 280 282 285 286 283 283 283 285 285 285 285 285 285 283 282 282 281 282 282 282 280 280 279 282 282 283 282 281 280 281 282 282 282 281 280 280 279 278 278 278 277 278 279 279 280 278 278 277 275 274 274 274 273 272 271 270 272 274 274 273 272 271 270 269 270 269 269 269 269 268 270 270 270 269 267 270 274 273 271 269 273 275
284 285 285 282 284 284 286 284 287 287 287 287 288 286 286 285 285 284 285 284 283 283 283 283 282 282 282 282 282 283 284 282 281 282 281 281 281 281 280 279 278 277 276 275 275 274 276 275 274 275 275 274 274 274 274 273 272 271 269 269 270 273 273 272 272 270 269 269 270 270 269 269 269 268 268 267 267 267 267 266 267 276 277 276 275 276
Wind_Speed
0 4 5 6 9 11 6 10 7 3 5 5 3 3 4 4 5 4 4 4 1 1 8 10 9 8 10 11 12 5 4 6 9 9 10 9 8 9 10 11 11 10 10 5 6 6 6 6 4 4 4 5 4 4 6 6 5 5 6 7 7 6 6 5 5 3 3 4 6 6 4 5 4 5 5 5 3 5 5 6 7 7 5 5 6 5
3 2 7 11 12 5 6 4 4 4 3 1 1 1 5 3 6 5 0 1 2 3 4 2 5 10 13 12 12 2 4 9 12 12 13 14 12 11 12 12 11 8 2 5 5 5 4 4 5 5 4 6 7 5 6 7 6 7 6 6 7 6 6 5 5 5 3 3 2 6 5 5 4 3 3 4 4 4 6 7 7 6 6 6 6 5
1 8 10 12 3 4 3 5 2 4 2 2 3 2 2 7 5 10 6 3 2 1 9 5 9 13 10 10 10 8 11 9 10 12 15 14 13 12 11 11 8 7 9 7 7 6 7 7 7 7 6 6 6 7 7 6 7 6 6 6 7 6 5 5 5 5 4 6 5 5 5 4 5 5 4 5 3 4 7 7 7 7 6 6 5 5
3 5 16 3 5 4 2 3 4 2 1 3 1 1 8 3 1 7 1 2 1 2 3 2 8 12 9 9 13 14 12 11 10 12 13 11 13 14 15 13 13 14 11 12 13 12 8 7 7 8 8 7 5 6 6 6 7 6 5 6 6 5 5 4 6 6 6 8 8 9 7 7 5 5 5 6 6 6 7 8 7 5 4 7 6 5
10 2 2 5 6 7 4 3 5 4 6 3 6 5 3 3 6 7 5 3 2 1 2 5 9 12 9 13 10 11 6 5 11 8 9 13 13 10 5 7 13 15 15 13 11 9 10 10 11 10 8 7 7 7 7 7 7 6 7 7 6 6 6 5 6 8 8 10 9 7 9 8 7 6 5 6 6 5 5 5 6 4 5 5 6 5
9 6 3 5 2 3 4 2 6 7 5 3 6 10 9 6 7 5 3 4 7 5 3 3 7 5 4 6 10 10 4 5 4 6 15 18 11 8 11 13 8 9 11 15 17 16 13 11 8 9 10 9 7 8 7 7 7 6 7 7 7 6 6 7 7 8 8 8 11 10 9 6 4 5 4 4 6 5 5 4 2 5 5 4 5 5
5 0 4 6 5 5 5 5 4 7 7 1 6 9 11 8 4 1 1 2 3 4 2 2 3 12 1 4 6 6 3 9 8 6 14 12 10 8 12 9 10 11 9 6 6 7 10 10 11 11 11 11 9 7 6 5 6 6 7 7 7 7 7 7 8 8 6 7 5 6 8 9 10 9 2 2 3 4 3 4 5 5 4 4 5 4
3 0 4 4 5 5 5 4 5 11 6 4 1 3 4 3 5 5 3 6 6 1 3 1 3 6 18 7 10 11 9 8 10 14 16 14 9 8 8 7 8 10 12 13 13 13 12 12 14 15 13 10 9 7 7 6 5 7 7 7 7 6 7 7 8 7 5 6 6 6 6 5 5 5 8 6 4 4 4 6 5 4 4 4 4 5
6 4 4 4 2 4 8 7 5 10 8 3 0 4 5 6 4 3 3 3 0 3 9 0 0 2 10 3 3 3 6 7 12 17 17 14 5 7 9 9 10 11 13 13 13 14 15 15 14 12 12 9 8 8 8 7 7 7 7 7 7 7 7 7 7 7 5 4 4 6 8 8 5 6 6 5 4 5 5 7 4 5 4 4 4 4
1 4 9 8 8 8 5 1 7 12 6 1 5 8 7 7 6 3 4 2 1 2 8 6 4 4 19 6 4 3 2 7 12 16 16 9 4 6 9 8 8 7 7 9 11 12 13 11 10 9 9 9 8 7 7 7 6 7 7 8 8 8 7 7 7 5 4 3 5 7 6 11 8 6 6 4 6 5 4 6 5 4 5 4 5 4
0 4 4 4 6 4 5 3 1 2 2 7 4 7 5 8 4 3 6 2 3 6 8 11 9 6 11 3 9 9 8 11 12 7 8 5 4 4 5 6 7 7 7 8 8 8 8 6 7 9 11 10 7 7 8 7 8 7 8 9 9 8 7 7 7 6 5 5 5 6 8 12 13 9 9 8 5 5 5 7 5 4 4 3 5 5
0 1 1 2 3 3 4 4 4 2 4 6 2 3 4 2 6 3 4 4 1 9 1 3 10 8 12 4 4 6 4 3 6 8 9 5 4 4 4 5 5 6 6 6 7 8 8 7 6 7 10 10 9 8 9 8 8 8 8 8 9 7 7 7 6 5 5 6 6 5 7 10 13 14 10 11 11 8 8 7 7 5 5 4 4 3
5 6 2 2 3 8 3 8 4 4 0 3 6 7 6 4 5 3 3 3 6 9 0 2 1 4 20 14 2 8 9 8 9 9 8 7 6 5 4 5 5 5 6 8 8 8 9 11 12 12 12 11 10 11 10 9 9 9 8 9 10 9 8 8 8 7 7 7 7 7 7 6 9 10 12 11 11 9 9 8 7 7 7 5 6 4
8 1 0 2 2 5 8 9 3 1 5 4 8 7 6 1 2 5 3 2 7 7 3 0 1 10 4 7 9 18 19 13 8 9 8 7 8 6 5 4 6 7 8 9 9 9 10 11 11 12 12 12 10 11 11 10 10 9 8 9 10 10 9 8 8 8 8 7 7 7 7 8 9 9 9 9 10 9 8 8 8 8 8 7 7 6
5 6 7 8 5 6 10 12 14 6 11 11 3 11 10 9 7 4 6 7 8 5 2 5 2 8 3 5 3 11 6 5 5 4 4 6 6 4 2 4 5 6 7 9 10 11 12 11 12 12 12 11 11 11 10 9 9 9 9 9 10 9 8 8 9 7 8 7 7 6 6 7 7 9 8 7 7 9 9 7 7 6 5 6 6 6
10 7 5 7 2 9 13 2 6 6 3 2 1 5 3 8 6 7 4 3 1 2 4 2 8 4 6 3 5 5 6 9 6 6 4 8 5 4 3 6 9 9 9 9 10 10 9 8 9 9 9 10 10 11 9 10 10 10 9 10 10 11 10 9 8 7 8 8 6 6 7 7 6 5 6 6 5 4 6 7 7 7 5 5 6 4
3 6 1 4 4 6 5 2 2 4 8 4 6 7 5 2 5 2 2 1 1 2 13 4 10 7 8 13 13 18 13 13 6 5 6 9 5 3 6 7 9 9 10 10 12 12 10 8 9 10 10 10 10 11 11 11 11 11 10 10 10 9 8 9 9 9 8 7 7 7 7 7 6 7 8 8 7 6 5 5 5 5 5 5 5 5
8 6 1 2 5 1 0 0 3 5 3 9 4 7 2 2 3 3 6 1 1 5 8 6 12 10 3 17 3 2 5 12 10 11 11 7 4 6 9 8 9 10 11 10 9 9 10 11 12 11 9 10 12 12 12 12 10 10 10 11 11 10 11 8 8 8 8 9 8 7 7 7 7 8 7 6 7 7 7 6 5 5 6 6 5 5
3 6 2 1 0 3 2 1 2 2 2 5 5 5 8 5 3 2 4 7 1 6 8 3 2 10 10 15 0 1 5 9 14 13 7 10 9 12 8 8 6 5 5 8 10 10 11 11 11 11 12 10 10 11 11 10 10 9 9 10 12 13 12 12 9 7 6 7 7 8 9 9 7 6 6 6 6 6 7 8 7 7 6 6 5 6
1 5 3 1 2 1 0 4 10 2 2 1 3 4 1 2 1 6 8 2 5 6 2 10 7 17 5 7 7 15 15 14 10 4 7 11 13 11 8 7 9 9 10 10 10 11 10 10 11 12 12 12 12 11 10 9 8 10 10 10 10 9 9 9 9 10 10 8 8 7 6 7 8 8 8 7 8 7 7 7 8 7 7 8 6 5
3 2 7 1 3 2 4 6 10 13 11 2 3 5 1 0 2 4 1 3 3 3 3 5 13 14 2 6 7 10 8 10 8 11 9 10 6 4 6 8 9 10 10 10 10 10 9 9 9 8 7 8 6 6 7 8 10 9 8 10 11 13 11 10 10 10 10 9 9 10 10 9 8 8 8 8 7 7 7 7 7 7 7 6 6 7
2 3 10 2 1 7 6 3 6 12 16 16 17 15 17 11 5 4 8 2 2 2 7 4 16 16 4 3 10 7 8 6 7 8 10 5 3 5 6 8 8 8 8 7 7 7 8 8 8 7 6 6 7 9 9 8 7 8 9 10 10 9 11 12 10 10 9 8 9 10 10 9 8 9 8 9 8 8 7 7 8 7 7 7 6 7
7 3 3 5 8 10 4 0 1 0 2 1 2 7 7 8 7 6 7 7 1 4 4 3 3 25 4 6 5 8 6 5 3 3 8 5 5 5 7 8 7 7 7 8 8 7 7 7 8 9 10 11 12 11 9 8 9 10 9 8 8 10 10 11 11 9 9 9 9 9 8 9 9 9 10 10 9 9 9 8 7 7 9 8 7 6
5 3 3 5 2 2 2 2 2 1 1 2 1 1 5 10 13 13 9 4 8 2 4 2 3 22 2 0 2 2 5 5 5 4 7 6 4 4 5 5 6 6 5 5 6 5 6 6 6 8 10 11 10 10 11 11 9 8 8 8 7 10 9 9 8 9 9 9 10 10 10 10 9 10 10 11 10 11 9 8 8 7 8 7 7 8
5 4 8 1 3 3 2 2 2 2 2 2 4 8 12 10 8 1 6 3 3 11 14 10 15 21 1 1 2 0 3 6 6 5 6 7 5 4 4 4 5 6 6 7 9 8 7 8 11 12 11 10 10 10 10 10 9 9 8 7 8 7 6 6 6 8 8 9 11 10 11 11 11 11 11 11 10 11 10 9 8 7 8 8 8 7
7 8 9 9 13 14 12 11 12 10 13 6 2 5 5 11 14 6 8 5 9 12 13 10 18 7 1 2 2 2 3 7 5 5 5 7 5 4 4 4 5 7 9 9 8 9 12 12 8 7 10 11 11 11 10 9 9 8 7 8 6 7 6 6 5 7 8 9 11 11 12 11 11 13 13 12 10 11 11 9 9 9 7 8 9 8
2 4 12 14 16 18 17 8 2 10 7 9 15 16 15 14 13 12 7 6 17 8 9 21 26 14 3 2 4 5 3 7 7 4 7 6 5 5 4 4 5 6 6 8 9 8 5 7 13 14 12 11 10 9 9 9 9 9 8 8 7 7 7 7 7 7 8 8 8 8 9 10 11 11 11 10 9 8 8 9 9 9 9 8 9 10
3 3 11 19 21 21 21 7 8 18 17 19 17 16 19 17 18 16 16 21 10 8 15 23 18 15 21 6 7 9 7 5 8 8 7 6 6 4 4 3 4 4 5 7 8 12 15 15 11 11 13 11 11 9 8 9 10 10 10 11 9 8 8 7 8 8 8 8 8 8 9 8 8 8 8 6 6 7 7 7 8 8 7 8 9 9
7 12 15 14 19 20 14 5 11 12 15 16 19 19 19 20 16 20 25 27 12 15 26 11 9 17 23 16 13 8 8 10 11 9 7 3 0 2 3 4 5 7 7 9 13 12 11 12 14 15 13 11 9 11 11 9 9 8 8 8 9 9 10 8 9 9 9 8 9 9 7 7 6 4 5 7 7 8 8 8 7 7 7 8 8 7
4 9 11 13 18 19 17 11 8 13 8 9 16 19 20 22 25 28 28 26 21 21 24 9 8 15 24 12 16 14 12 12 5 1 0 2 4 3 4 6 8 9 10 12 12 12 13 15 13 10 9 10 13 12 11 11 11 11 12 11 10 10 8 9 9 9 8 9 9 6 6 7 6 6 6 8 9 9 8 8 8 8 8 8 8 7
10 12 16 5 6 15 18 11 6 12 10 10 9 13 19 22 27 30 27 22 19 23 25 15 12 23 17 8 8 10 9 2 1 5 8 8 5 6 7 7 8 10 11 11 11 12 14 12 8 7 10 12 13 14 13 12 12 11 10 9 10 11 10 10 9 9 10 10 8 7 7 7 7 7 9 9 8 7 8 8 8 8 8 7 7 8
8 4 2 4 9 14 15 14 15 6 6 10 11 15 20 25 25 23 19 21 18 22 20 10 14 24 3 12 6 5 4 6 11 10 8 8 8 6 8 9 9 10 11 13 15 14 13 11 11 13 15 16 15 13 12 12 11 10 12 11 11 10 9 10 10 10 10 9 8 8 9 8 9 9 9 8 9 9 8 7 7 8 7 7 7 7
7 7 7 6 12 16 19 13 12 9 4 8 15 24 31 27 18 11 18 18 21 22 16 18 25 25 4 3 9 6 9 10 10 8 10 10 9 10 11 11 11 10 11 14 15 14 13 14 16 17 16 14 15 15 16 15 13 14 14 13 10 9 10 10 10 10 10 9 9 9 9 9 10 10 9 8 8 7 7 8 8 8 7 8 6 6
5 8 10 7 11 11 15 7 8 8 15 17 24 31 24 21 17 18 21 23 22 18 19 23 24 12 8 6 10 10 11 13 14 15 12 12 10 7 8 8 10 12 12 10 8 9 10 10 10 11 13 15 16 16 14 14 15 11 8 9 9 11 10 10 10 10 10 9 9 9 9 10 9 9 8 7 7 7 8 8 9 7 6 6 6 8
11 10 11 6 4 10 3 9 8 17 19 15 4 1 14 17 19 25 24 20 21 20 20 20 21 18 9 8 10 10 12 12 8 11 10 7 5 7 11 14 15 14 13 9 8 9 12 14 13 12 12 12 12 9 9 9 7 7 8 9 10 8 9 9 9 9 9 9 8 9 9 9 9 9 8 8 8 8 8 9 7 8 8 8 9 10
11 12 5 5 5 2 4 8 10 13 3 4 3 5 4 12 14 13 15 17 19 22 25 27 29 23 13 12 8 8 7 7 6 8 7 4 7 11 12 13 13 11 11 11 14 14 14 16 18 18 17 11 9 10 11 11 9 9 8 8 9 9 9 10 10 10 9 9 9 10 9 9 9 8 8 8 8 9 10 10 10 10 8 7 6 5
13 10 9 9 7 12 8 13 16 5 7 4 6 6 10 12 14 20 17 21 23 23 24 25 26 20 14 13 12 5 2 3 7 14 5 8 12 14 14 13 10 10 11 9 9 10 10 9 8 7 6 8 11 11 10 9 10 9 9 9 9 9 9 9 10 10 9 9 10 9 9 10 10 9 9 9 10 11 11 10 9 7 6 7 7 7
9 14 9 13 7 11 12 9 5 7 14 17 11 1 4 5 13 13 9 12 14 22 22 22 22 16 14 15 13 5 4 2 13 18 7 13 14 11 6 5 2 4 5 5 4 4 6 6 5 5 8 10 9 8 9 10 11 10 9 9 9 10 9 9 11 10 10 11 10 10 10 10 10 11 10 10 12 12 10 7 5 7 7 10 10 9
11 10 7 13 6 6 10 11 9 10 13 5 3 6 10 10 16 8 8 16 15 16 19 18 16 18 18 19 11 11 7 9 18 15 11 9 8 6 8 5 4 5 4 6 8 9 9 8 9 9 8 9 10 9 9 10 12 11 10 9 9 9 10 11 10 11 12 11 9 10 10 10 10 10 11 11 11 10 10 10 10 7 6 6 5 6
14 11 8 10 10 10 9 11 11 5 8 2 3 3 5 5 11 12 7 15 5 11 13 15 19 23 21 16 7 10 12 13 15 16 3 11 11 9 11 10 7 5 5 4 3 5 7 10 11 9 10 10 10 10 12 11 10 9 9 8 8 9 11 12 12 10 7 7 9 9 9 9 10 10 10 11 9 8 9 6 5 6 8 6 6 6
6 5 8 16 14 14 14 10 3 6 4 3 3 1 4 10 14 12 19 8 4 8 11 17 21 21 16 9 11 11 13 17 10 1 4 6 6 3 2 3 4 5 8 8 7 9 9 8 9 10 10 9 11 10 10 10 10 9 8 9 9 12 13 8 7 8 9 8 8 8 9 8 10 11 10 9 10 8 6 6 7 7 7 8 6 6
6 6 3 7 11 11 11 12 9 4 5 6 1 9 7 9 6 16 7 1 2 2 6 8 13 11 7 10 11 13 12 2 1 4 5 8 8 6 5 5 6 6 4 4 7 8 9 8 8 9 8 7 9 9 9 10 10 8 9 9 12 12 6 7 8 8 8 9 9 9 9 9 8 8 9 7 7 7 7 6 7 8 8 6 7 8
10 8 8 10 5 3 1 8 4 10 2 7 11 2 4 7 5 3 1 1 1 2 7 7 7 9 9 10 11 9 3 3 4 5 5 5 8 9 9 9 10 10 10 8 6 4 9 9 8 8 8 7 8 8 8 10 10 9 9 12 11 6 7 7 8 9 9 8 8 8 9 8 9 8 6 7 8 9 8 7 7 6 7 7 7 8
4 6 3 6 8 8 11 11 9 5 5 12 17 11 11 11 2 3 6 4 1 3 6 6 8 6 6 8 8 6 5 6 2 4 5 4 4 4 5 5 6 6 6 4 6 8 7 10 8 8 6 6 6 7 8 11 11 10 12 10 5 7 6 7 7 8 8 8 8 8 7 7 7 7 7 8 8 8 8 8 7 7 7 7 8 7
8 10 3 7 5 9 7 7 2 4 10 13 9 2 5 7 3 6 3 2 6 6 4 3 8 5 6 7 7 8 5 5 7 8 9 10 8 9 9 7 9 10 10 10 9 6 7 12 12 9 8 6 7 7 8 8 12 11 11 6 7 8 9 8 8 8 8 8 8 7 7 7 7 8 7 7 8 8 7 6 7 7 5 7 7 7
4 2 1 2 4 1 3 1 0 1 3 9 4 1 1 2 2 5 5 4 6 6 9 9 7 7 6 8 10 5 8 8 8 6 3 6 7 5 6 6 5 5 6 8 8 7 7 8 9 11 11 6 5 7 7 6 9 13 8 6 7 8 8 9 9 8 8 7 7 7 7 7 5 6 6 7 6 7 7 8 8 8 7 7 7 7
2 1 1 3 1 5 7 6 6 4 2 5 8 3 2 1 2 2 4 5 4 5 6 3 5 7 8 7 11 10 7 8 8 5 6 6 8 8 9 10 8 10 12 11 9 10 9 10 10 10 11 11 7 6 6 6 4 5 7 9 8 8 9 9 9 8 7 7 6 6 7 8 7 6 5 5 5 5 6 6 7 7 7 7 8 8
4 3 1 2 2 7 5 1 4 3 4 5 3 4 3 3 4 3 2 2 1 1 0 2 2 4 5 8 8 11 10 9 10 9 8 8 9 10 10 10 11 7 4 7 9 9 10 11 12 12 11 11 10 8 7 6 5 5 7 7 8 8 8 8 8 8 7 7 7 6 7 7 8 8 6 6 7 7 6 6 7 8 9 11 10 9
2 3 3 2 6 4 4 4 4 5 3 3 1 0 2 2 1 1 1 1 2 3 3 3 1 2 5 6 6 9 11 8 8 12 12 8 8 8 9 10 10 11 11 11 9 10 12 11 11 12 11 10 9 8 8 7 6 5 7 7 8 9 9 8 6 6 6 6 7 6 6 6 6 6 6 6 6 7 7 9 9 9 8 5 6 9
3 3 2 1 2 2 8 7 6 3 5 2 3 3 2 4 3 1 1 1 2 4 4 4 3 3 3 0 4 9 11 9 6 8 12 12 12 11 8 8 8 9 7 5 6 5 5 7 10 10 8 7 7 8 8 7 6 5 5 6 7 8 9 8 7 6 6 6 6 6 6 5 5 5 6 6 6 5 3 4 5 6 6 6 7 12
7 7 6 5 5 5 0 3 6 3 1 4 7 7 6 4 6 5 5 5 3 2 4 6 4 1 1 1 1 3 7 11 11 8 8 8 9 9 11 12 11 7 7 7 7 5 6 5 5 6 6 6 6 6 6 6 6 6 5 5 6 7 8 8 7 5 6 6 5 7 6 5 5 4 4 3 4 3 5 3 3 8 12 11 9 10
Wind_Direction
82 130 163 188 218 217 203 193 198 156 133 98 94 113 208 218 282 284 273 254 204 281 234 230 240 249 260 258 263 243 179 236 255 255 247 240 227 221 221 219 216 214 218 191 197 193 195 201 203 196 172 163 160 160 154 157 155 153 149 139 133 139 138 135 132 126 127 122 112 80 60 84 71 76 74 61 33 45 55 58 64 60 58 68 78 72
64 140 237 220 222 205 202 168 101 92 64 144 120 180 276 155 250 235 242 1 307 173 292 270 263 257 253 260 262 248 149 237 232 239 244 242 228 226 219 220 212 210 135 176 197 205 202 203 202 190 186 165 161 178 167 167 169 155 153 147 142 150 148 146 136 131 103 48 61 119 113 101 84 74 63 68 43 30 58 54 57 56 53 57 63 67
146 203 230 226 103 107 88 144 140 163 156 64 191 221 292 267 246 276 260 326 284 116 260 292 277 265 257 255 265 258 231 238 231 222 233 230 233 229 222 217 201 184 199 188 199 191 195 195 193 182 186 185 181 172 175 167 161 160 158 153 154 153 140 119 111 109 100 103 92 101 107 95 95 64 73 80 73 56 64 55 53 56 51 59 63 59
289 281 244 178 136 108 57 89 116 86 71 159 113 159 234 235 3 297 308 5 4 176 278 328 301 279 273 252 250 251 234 235 239 238 242 235 236 228 220 205 197 201 185 192 193 195 190 189 189 182 186 189 173 172 168 171 166 166 163 160 152 141 123 109 103 102 86 91 91 86 88 77 78 109 92 86 70 66 66 62 59 36 38 27 54 64
199 209 321 149 156 168 159 114 116 143 239 243 195 206 222 199 232 194 253 317 278 354 55 318 283 277 238 256 262 251 254 266 260 252 258 250 236 240 237 209 202 196 189 190 191 190 186 189 192 185 181 177 183 179 177 173 171 167 168 159 147 134 129 115 116 119 122 114 99 99 91 96 99 81 82 82 63 59 81 77 37 32 27 49 69 68
278 250 94 85 125 129 115 142 194 154 238 284 226 199 215 212 231 272 331 6 0 328 352 50 317 274 280 248 251 277 342 288 262 230 247 247 236 220 226 220 197 204 192 188 189 189 186 181 174 182 182 190 186 185 184 174 166 157 155 147 141 127 128 132 131 138 142 143 138 135 124 121 114 114 116 118 131 120 81 74 90 56 46 61 71 66
214 132 145 158 140 166 168 184 229 162 208 207 272 196 210 211 196 188 264 70 292 245 300 40 218 288 223 237 237 254 257 262 280 240 252 253 240 216 225 212 195 192 186 193 184 174 173 182 180 186 188 189 188 188 168 157 156 155 150 146 143 143 141 140 146 151 148 144 154 146 142 147 151 138 90 79 68 97 85 85 75 72 54 51 79 73
110 62 82 89 110 147 164 206 238 174 154 236 251 151 163 151 188 219 174 189 241 270 288 58 111 283 294 242 214 221 234 258 275 276 264 248 231 224 225 211 198 192 189 186 187 183 183 181 184 186 186 186 188 163 156 160 155 154 153 147 143 139 143 146 150 155 163 153 153 129 114 103 109 125 136 134 112 80 97 91 79 78 67 58 65 87
150 173 155 154 144 142 193 207 178 160 151 218 245 136 145 170 179 121 151 187 247 25 289 334 183 308 259 280 354 138 221 264 261 254 258 262 231 224 219 211 203 196 192 183 179 183 183 186 189 184 182 183 167 159 163 166 161 155 151 143 134 136 144 152 156 155 161 158 141 131 124 104 70 91 104 111 101 106 107 99 83 82 78 72 62 64
310 167 203 165 156 207 218 275 165 161 186 243 119 90 86 80 68 103 92 103 321 45 260 184 175 221 279 250 166 358 188 235 240 244 251 268 230 221 221 218 207 196 186 187 187 182 185 185 183 180 170 172 173 160 157 154 149 149 148 147 149 152 159 158 158 153 145 138 132 134 129 121 118 117 107 107 119 119 118 110 104 98 93 88 80 65
236 286 176 135 198 195 120 43 152 174 126 132 111 79 33 44 36 31 63 86 43 259 252 183 197 164 278 291 178 137 201 205 225 263 278 294 283 259 240 215 199 191 183 181 179 181 182 178 176 167 176 176 157 160 159 154 155 155 154 156 162 162 155 159 160 153 152 139 143 144 151 141 138 141 137 129 116 123 120 127 127 122 111 89 90 81
13 14 156 248 92 113 103 76 22 86 130 128 107 124 74 348 14 36 340 39 124 265 125 235 186 177 217 290 272 241 287 272 205 233 258 287 268 258 225 212 197 184 181 174 171 174 169 161 179 177 176 175 168 162 164 162 158 160 161 159 158 157 159 159 152 145 146 147 143 145 156 153 150 151 155 153 154 165 152 148 143 136 115 105 92 89
266 216 237 319 214 139 117 84 11 32 346 86 96 89 114 247 37 276 24 246 194 240 165 352 134 350 239 244 243 268 262 260 224 225 233 238 262 265 247 209 184 174 168 177 182 174 178 180 179 184 179 173 176 176 170 167 165 165 165 165 160 165 162 161 159 158 159 154 157 159 158 155 154 158 159 160 157 162 157 155 148 152 143 138 123 128
273 290 322 218 72 237 151 156 165 56 216 134 154 148 118 133 214 255 267 286 312 291 265 109 49 250 290 297 217 253 247 232 237 231 231 234 247 251 231 197 176 177 181 183 183 189 188 185 185 184 179 180 177 176 172 169 169 169 168 170 169 169 167 162 162 161 164 169 162 162 163 162 162 163 164 163 159 162 159 157 159 162 157 156 153 148
242 303 238 138 245 174 188 199 181 160 159 201 108 160 184 155 159 210 195 214 231 227 291 280 105 235 112 246 246 241 285 302 256 263 253 255 260 280 265 178 174 180 190 185 187 192 193 192 184 183 182 179 179 177 172 170 172 168 170 172 173 163 169 167 169 164 168 165 161 166 165 165 168 162 164 167 165 158 155 158 153 152 148 145 146 143
215 240 266 210 324 160 189 212 106 93 81 229 171 60 94 218 139 235 199 178 264 332 332 215 214 200 201 256 283 235 276 285 248 259 257 265 249 234 206 184 193 196 190 187 192 195 196 190 185 185 185 179 178 178 175 175 172 172 176 174 174 170 170 173 169 175 169 168 164 161 165 171 164 158 149 148 150 150 148 150 152 150 144 135 129 123
52 271 300 320 56 178 186 120 173 143 200 205 111 204 205 163 121 81 37 86 93 40 254 129 279 273 300 271 234 251 242 251 261 261 252 252 250 198 218 209 209 201 192 190 194 193 186 181 192 191 185 179 178 180 182 181 178 177 172 172 171 171 171 175 178 171 169 163 161 170 168 161 160 162 163 163 157 150 137 132 131 134 131 124 128 132
152 237 311 90 216 310 107 171 93 23 138 100 192 225 148 119 106 146 231 351 83 218 273 139 243 282 62 283 2 345 273 262 262 249 235 242 228 220 226 215 206 205 204 202 197 188 182 185 186 186 189 186 182 181 182 183 178 179 175 174 170 169 175 183 174 170 168 165 168 166 167 168 167 163 160 156 156 146 137 131 125 122 131 148 148 139
138 278 302 316 136 304 355 128 29 358 26 143 193 195 129 233 251 287 88 254 216 251 276 278 268 267 191 254 221 226 200 243 244 246 246 245 229 231 224 224 216 205 199 194 195 190 186 187 186 184 187 188 187 186 184 178 175 177 178 178 176 177 180 176 171 168 171 173 169 171 170 166 162 159 149 141 141 144 147 148 149 151 149 137 143 140
78 188 284 344 135 266 25 125 199 173 345 57 81 151 78 99 166 135 198 190 120 265 38 281 76 272 145 219 181 233 221 235 249 276 247 241 233 227 214 211 207 202 201 200 198 196 190 186 184 184 182 183 186 186 186 179 177 183 181 178 180 176 173 167 169 169 173 177 169 168 161 166 163 156 152 152 151 155 158 158 155 151 155 163 149 146
213 148 253 316 326 107 194 195 200 165 174 183 135 196 172 29 249 114 337 145 175 184 183 285 301 264 251 206 198 227 230 245 226 240 248 246 252 230 208 207 210 205 200 201 199 191 186 184 179 185 187 185 184 187 182 185 187 184 177 181 180 177 175 177 177 174 178 170 174 165 169 169 162 158 152 150 160 158 161 158 158 165 158 141 155 150
158 157 218 143 299 230 246 254 218 198 190 179 180 193 184 147 157 157 249 66 116 136 244 161 252 273 228 196 202 219 233 223 243 234 251 263 233 207 204 213 206 204 206 197 194 186 184 179 177 179 178 178 182 187 187 190 182 183 188 188 181 179 180 177 183 181 172 174 169 172 169 168 161 155 154 156 160 164 163 165 168 162 152 161 158 156
163 148 101 191 213 212 212 232 270 294 16 234 190 235 177 187 164 167 217 220 106 241 92 182 77 270 209 180 197 203 233 233 235 231 251 263 247 221 210 208 200 194 188 187 182 185 185 179 179 181 183 187 192 191 187 186 190 192 192 184 184 183 189 185 180 176 171 171 170 173 170 162 163 159 162 162 168 170 170 170 168 162 162 160 157 158
104 125 197 266 335 310 312 296 57 73 75 312 319 112 140 190 197 199 204 167 175 165 209 238 237 261 61 183 236 250 273 274 273 235 250 268 267 244 210 209 199 177 178 170 169 171 172 171 171 177 191 192 193 192 193 193 192 192 191 189 182 193 187 185 180 176 172 173 175 172 166 170 163 166 169 173 176 175 174 170 168 164 162 159 155 154
139 229 192 187 353 334 335 340 291 18 52 214 185 204 200 204 199 77 81 65 186 205 196 175 236 257 236 309 296 347 328 292 268 250 213 255 253 230 216 205 182 172 165 171 174 175 168 174 186 195 192 192 195 197 193 192 192 189 191 184 190 193 187 185 178 176 178 174 174 176 175 172 169 174 180 180 176 178 171 171 165 165 163 156 158 157
180 156 167 194 222 235 238 212 213 202 202 198 248 192 202 184 192 143 219 198 222 234 168 209 244 252 331 331 312 314 325 293 268 245 250 228 247 226 214 200 188 180 185 174 168 171 189 192 189 191 196 198 199 195 191 192 190 188 186 191 181 180 178 188 179 185 177 183 181 182 182 176 176 183 184 182 179 177 172 167 166 165 165 164 159 157
175 177 185 196 210 231 239 254 38 103 82 190 208 188 200 207 201 200 210 194 220 219 161 221 229 238 271 253 256 263 246 253 284 292 248 252 238 223 209 197 189 186 183 185 177 178 167 186 200 202 198 199 195 191 190 189 187 185 185 184 182 179 176 178 177 185 188 189 190 185 190 183 186 185 184 182 177 167 167 169 169 167 169 171 163 164
89 209 211 214 219 230 242 204 192 152 181 204 197 199 203 195 196 193 200 220 198 89 242 238 224 240 242 216 241 234 254 275 262 254 267 264 253 210 198 186 160 170 171 168 177 184 197 202 199 200 200 194 193 186 188 190 189 186 186 188 181 177 175 174 177 186 191 189 194 192 189 190 190 190 183 169 161 167 169 167 169 174 169 164 170 173
169 218 218 217 230 234 233 167 185 184 186 192 200 197 197 201 194 201 216 224 177 201 231 245 179 225 247 218 224 210 216 218 227 228 225 226 223 139 137 164 186 195 188 192 204 200 197 201 202 202 196 190 177 187 190 185 186 186 190 188 181 176 182 168 176 188 189 191 198 196 183 180 182 173 162 161 164 166 171 172 173 171 170 176 175 175
139 233 228 209 226 235 236 219 189 195 209 201 200 203 200 194 202 208 218 217 207 224 238 228 200 230 238 219 215 220 217 225 231 205 90 205 217 174 178 198 204 203 199 207 208 207 206 208 205 196 184 182 187 189 186 186 189 190 190 191 183 178 171 161 184 183 186 196 200 186 175 171 164 166 166 171 176 176 170 169 172 173 177 183 179 168
175 219 217 193 221 239 239 228 196 213 194 208 217 209 206 206 209 211 215 220 216 237 240 241 276 272 253 175 212 224 228 318 337 254 240 239 224 202 204 213 216 211 211 213 211 209 211 208 196 175 183 192 192 192 190 190 190 190 192 187 179 179 171 167 176 183 190 198 188 181 167 164 167 166 182 183 175 169 167 172 171 176 183 182 177 171
181 283 59 125 225 244 238 218 219 206 214 216 213 216 219 213 214 213 212 214 204 221 233 239 257 251 83 163 159 147 158 194 223 228 234 240 229 208 212 224 223 219 212 212 213 211 206 195 185 188 194 195 194 189 188 189 187 182 194 184 185 177 158 170 178 186 191 191 182 179 172 170 168 178 185 176 179 173 172 166 171 181 184 179 175 175
181 190 197 193 222 233 236 208 203 187 203 241 230 224 218 216 212 206 220 214 210 209 211 217 229 235 133 189 154 203 202 217 228 225 230 237 229 211 216 222 228 229 223 218 214 209 200 193 195 195 195 191 191 191 195 186 179 192 190 184 178 147 165 175 178 184 191 190 184 181 175 172 177 182 179 182 174 170 166 173 180 183 179 185 180 161
183 209 223 196 234 234 241 185 166 162 216 219 221 223 217 214 191 200 214 213 214 201 214 218 231 227 140 174 174 196 212 221 215 226 213 217 218 222 234 238 238 234 234 232 221 203 196 193 197 200 199 197 196 196 188 181 187 187 167 157 147 163 167 169 183 186 192 186 186 179 177 177 176 179 180 172 168 166 174 179 189 184 179 168 168 184
201 205 223 202 233 236 199 123 182 213 222 233 17 164 212 216 200 205 219 215 215 217 230 244 246 242 194 190 203 210 216 236 234 235 236 230 205 204 215 227 229 231 232 223 207 199 195 195 194 190 193 198 193 180 163 179 172 137 147 156 158 162 163 173 178 187 187 186 182 177 180 176 173 176 171 169 168 171 180 186 183 182 184 180 186 188
199 204 195 226 189 27 158 181 225 224 254 333 262 278 249 196 188 191 232 229 219 214 216 228 235 235 217 221 221 221 226 254 292 257 232 213 195 210 217 225 226 222 223 213 206 203 194 192 192 191 193 177 159 171 178 173 155 147 151 149 155 160 167 170 180 188 183 184 184 184 179 171 172 174 169 167 169 176 188 190 190 190 183 180 188 194
198 201 197 232 177 223 197 208 231 16 321 240 256 224 177 169 169 179 208 229 216 215 213 224 233 232 228 230 229 198 224 328 293 270 155 200 219 223 219 225 217 217 219 225 206 210 198 191 188 184 157 158 169 168 167 149 149 143 140 152 160 159 166 171 184 189 184 187 187 181 175 175 173 174 172 172 177 190 193 190 193 190 166 178 188 190
197 204 188 212 217 207 219 228 239 246 248 241 227 339 169 170 171 185 187 259 229 220 215 217 228 228 228 232 227 162 94 300 270 261 204 217 226 228 235 247 228 207 207 189 155 151 155 157 137 137 157 162 161 156 141 142 144 143 145 153 155 160 168 177 192 187 185 192 185 179 176 176 174 175 178 177 189 194 195 191 184 184 177 186 189 197
213 212 200 210 204 190 221 232 218 222 239 269 252 194 176 174 170 146 182 244 240 193 211 205 219 229 224 228 215 119 175 228 253 260 244 202 231 201 210 216 185 181 173 171 170 161 158 152 146 146 143 151 141 141 138 140 142 148 157 159 164 167 176 192 192 185 191 190 177 177 176 177 177 180 179 186 194 188 187 190 192 180 167 190 185 201
211 212 204 224 226 224 223 229 232 216 249 272 232 225 186 116 110 125 186 240 270 143 190 181 209 223 225 223 155 155 186 231 245 255 138 178 196 191 186 186 170 155 143 122 110 140 137 131 127 143 152 148 146 140 142 144 146 150 154 159 153 172 192 198 194 186 174 170 174 174 174 176 178 180 181 189 188 185 194 178 151 162 178 191 185 184
198 221 209 218 218 223 224 244 297 274 264 215 229 216 121 147 137 167 211 234 171 172 172 183 202 216 219 192 152 199 214 217 239 288 156 115 108 116 93 116 156 151 152 147 144 139 139 148 153 151 149 142 138 140 140 141 139 153 158 157 168 196 202 187 163 165 172 168 167 172 176 177 180 182 188 186 185 179 166 164 175 167 174 185 185 183
221 207 232 212 226 226 224 234 238 293 235 163 23 147 168 108 204 213 213 280 131 166 212 186 199 216 190 174 182 210 226 220 103 127 126 168 160 144 130 128 110 92 80 114 139 138 127 123 120 113 104 117 133 137 142 143 149 154 159 166 194 203 159 156 165 159 161 169 172 174 174 178 184 183 180 170 152 159 179 182 174 179 179 178 180 192
184 177 195 205 208 246 188 243 227 236 259 105 114 73 290 197 240 166 108 293 181 207 163 214 197 216 174 199 203 208 128 128 133 154 160 146 150 154 155 153 151 145 138 129 110 111 128 121 120 119 123 129 133 137 144 144 150 160 161 189 199 158 157 153 156 161 164 166 166 173 178 179 177 175 164 167 171 171 181 174 174 178 172 175 183 197
169 192 187 228 178 203 200 212 215 214 137 172 144 179 202 213 185 180 127 186 254 196 203 182 224 211 191 184 173 168 169 133 107 115 110 111 124 130 134 132 110 108 104 86 117 132 121 110 111 112 113 127 138 145 154 155 156 165 178 195 145 147 141 150 153 154 157 166 173 171 175 174 173 171 169 170 169 175 173 174 178 174 179 181 185 197
195 202 162 212 176 193 210 222 202 178 170 198 190 174 218 197 117 169 157 185 167 235 208 217 221 207 180 160 156 155 154 201 163 168 154 169 160 158 153 148 148 146 144 137 137 132 132 137 139 134 133 147 154 161 164 168 160 166 181 177 149 155 156 153 152 153 164 168 170 169 168 165 170 174 173 172 168 171 176 171 165 177 184 181 195 200
344 194 147 127 267 314 315 144 14 343 251 223 238 200 254 267 164 147 167 180 239 212 181 194 201 181 171 157 146 189 180 173 151 168 146 148 146 124 108 108 101 104 107 117 126 142 126 119 126 137 142 153 174 168 174 172 162 164 188 160 161 159 153 152 150 161 164 164 163 166 158 160 166 168 170 168 175 179 178 174 177 184 180 184 201 203
268 79 54 174 261 167 244 193 193 221 308 276 242 303 274 269 280 206 206 228 243 192 202 242 180 173 168 167 163 156 152 162 159 152 144 146 144 149 148 146 147 153 153 151 150 132 133 136 138 146 151 160 187 182 178 168 177 166 144 157 158 153 151 151 153 152 155 159 157 151 159 160 165 162 161 167 167 171 171 170 174 179 183 187 198 206
310 173 174 212 276 210 261 279 278 292 251 260 251 273 315 332 356 352 285 293 39 48 201 187 140 141 155 165 162 148 158 163 154 156 158 162 159 157 156 154 151 144 157 148 151 157 146 152 151 156 160 167 180 182 174 168 163 152 143 144 148 146 142 146 156 158 162 158 155 158 161 164 156 159 166 174 173 176 183 186 179 187 197 195 196 198
260 42 232 191 215 277 309 263 281 316 302 244 200 41 251 258 284 328 348 46 90 102 98 64 34 198 191 168 149 141 147 180 173 162 160 162 159 159 163 162 164 162 152 161 175 169 163 160 158 163 164 169 170 166 170 168 166 148 143 147 146 147 141 146 146 137 140 146 144 149 156 158 164 168 168 175 189 205 194 186 193 204 220 220 196 202
79 219 235 41 319 269 239 247 127 251 268 270 171 191 226 214 158 204 357 48 82 121 126 100 29 24 19 22 165 155 157 165 170 168 162 167 171 167 156 157 162 155 156 153 150 159 148 160 156 161 163 162 164 166 165 165 165 161 143 146 150 146 141 142 139 134 139 143 146 148 154 162 169 171 173 180 188 197 250 274 228 218 208 222 210 220
179 206 160 192 217 255 43 192 195 204 290 225 193 191 208 167 149 174 195 188 198 181 145 122 96 40 335 341 328 206 167 162 171 167 162 166 171 168 164 158 152 156 155 154 140 156 158 159 147 137 149 161 165 163 161 157 160 159 157 151 158 146 138 136 131 134 138 148 166 172 170 168 173 172 162 158 164 171 195 248 280 244 236 229 212 219